Terug naar catalogus

THORAD DELTA 1 DEB

ActiefLEO
NORAD 42619·DEBRIS·🇺🇸 United States

Gelanceerd Nov 15, 1974 vanaf Vandenberg Space Force Base

Loading…

Volgende Passages (komende 24 uur)

TLE

VerouderdSource: Space-Track

Epoch: Sep 7, 2026, 19:37 UTC

1 42619U 74089GL  26250.81781714  .00001071  00000-0  17462-2 0  9993
2 42619 102.0487 266.2266 0176944 215.5269 321.7433 13.45169158625219

Volg THORAD DELTA 1 DEB in realtime met AllMySat

Download on the App Store